Location: Bourdaleix
(46.0564°N, 1.6936°E)
Time: 18:31:21
(UTC+00:00)

Daily predictions for brighter satellites

Satellite Brightness Start Highest point End
(mag) Time Altitude Azimuth Time Altitude Azimuth Time Altitude Azimuth
Cosmos 1814 Rocket 4.3 19:32:39 10° NNW 19:37:53 74° WSW 19:43:02 10° SSE
SL-4 R/B 2.3 19:36:05 10° WNW 19:40:25 85° SSW 19:45:03 10° ESE
Cosmos 1805 Rocket 4.3 19:38:42 10° N 19:42:42 34° ENE 19:46:41 10° SE
X-37B 0.6 19:40:34 10° W 19:43:45 73° S 19:46:56 10° E
IRS-1A Rocket 4.4 19:45:25 10° SSE 19:51:10 77° ENE 19:57:02 10° NNW
Cosmos 1745 Rocket 4.3 19:45:43 10° N 19:51:43 48° ENE 19:57:38 10° SSE
SPOT 3 Rocket 4.1 19:49:43 10° SE 19:54:32 42° ENE 19:59:22 10° N
ERS-2 3.1 19:51:17 10° N 19:54:49 51° WNW 19:58:20 10° SSW
Cosmos 1844 4.0 19:51:10 10° S 19:56:33 44° ESE 20:01:55 10° NE
Resurs 1-3 3.6 19:52:15 10° SSE 19:56:37 72° ENE 20:01:00 10° N
Cosmos 1743 Rocket 3.5 19:52:33 10° N 19:56:55 87° E 20:01:16 10° S
Cosmos 968 Rocket 3.5 19:52:13 10° S 19:57:23 62° ESE 20:02:34 10° NNE
BREEZE-M DEB (TANK) 3.8 19:53:36 10° W 19:57:54 82° S 20:05:17 10° ESE
ATLAS 5 CENTAUR R/B 3.0 19:54:25 10° NNW 19:59:38 44° NE 20:05:41 10° ESE
BREEZE M DEB (TANK) 3.9 20:00:00 10° WSW 20:03:33 85° NNW 20:15:03 10° ENE
Cosmos 1486 Rocket 4.1 19:59:42 10° S 20:04:55 59° ESE 20:10:10 10° NNE
Intercosmos 25 Rocket 4.1 19:59:23 10° N 20:06:18 79° E 20:10:30 10° SSE
IGS 5A 3.9 20:04:27 10° SE 20:08:23 47° ENE 20:12:24 10° N
Cosmos 1500 Rocket 3.9 20:04:29 10° NNW 20:08:53 69° W 20:13:12 10° S
Cosmos 1833 Rocket 4.4 20:05:01 10° N 20:09:15 21° NE 20:13:28 10° E
Cosmos 2221 3.8 20:06:34 10° SSW 20:10:41 44° WNW 20:14:52 10° N
S3M 4.1 20:05:07 10° S 20:11:23 62° E 20:17:38 10° NNE
BREEZE-M R/B 1.9 20:09:20 10° SW 20:12:00 48° SSE 20:14:23 10° ENE
USA 186 4.2 20:11:19 10° SW 20:13:01 16° W 20:14:39 10° NW
Cosmos 1666 Rocket 4.3 20:12:43 10° N 20:16:49 36° ENE 20:19:58 15° SE
FALCON 9 DEB 4.3 20:15:16 10° WNW 20:17:55 28° SW 20:20:03 13° SSE
Cosmos 1933 3.5 20:17:52 10° S 20:21:48 52° E 20:25:45 10° NNE
USA 245 3.7 20:23:41 17° E 20:24:11 19° ENE 20:25:54 10° NNE
Cosmos 1242 Rocket 2.8 20:24:03 11° S 20:27:19 47° E 20:30:47 10° NNE
OBJECT-B 3.2 20:25:05 10° SW 20:27:37 21° W 20:30:12 10° NW
Cosmos 1553 Rocket 4.3 20:23:58 10° SSW 20:30:03 69° W 20:36:17 10° N
Cosmos 1437 Rocket 3.2 20:27:27 10° SSW 20:31:17 65° WNW 20:35:13 10° N
BREEZE M DEB (TANK) 3.0 20:25:50 10° W 20:31:46 50° N 20:34:07 11° ENE
FALCON 9 DEB 4.4 20:30:25 10° W 20:33:00 25° SW 20:34:36 17° S
Resurs 01 Rocket 1.7 20:29:42 11° S 20:33:58 81° WSW 20:38:27 10° NNW
OE (NEXTSAT) 4.3 20:33:54 10° W 20:37:23 88° N 20:39:58 17° E
Spot 2 Rocket 4.0 20:34:12 18° SE 20:37:38 46° ENE 20:42:27 10° N
SJ 16-02 3.4 20:38:19 12° E 20:38:19 12° E 20:39:54 10° ENE
DELTA 2 R/B (1) 4.2 20:33:32 10° WSW 20:38:39 38° SSW 20:41:52 20° SE
Sich 1 3.1 20:34:52 10° N 20:39:12 80° W 20:43:00 13° S
COSMOS 2406 4.3 20:34:56 10° N 20:40:00 32° NE 20:43:43 16° ESE
Meteor 1-20 Rocket 4.2 20:36:37 10° NNW 20:42:18 86° W 20:47:10 14° S
Cosmos 2082 Rocket 4.0 20:38:21 10° N 20:42:28 20° NE 20:46:28 10° E
BREEZE-M DEB (TANK) 4.5 20:43:29 10° WSW 20:44:38 12° SSW 20:45:34 11° S
CZ-4C R/B 3.5 20:38:08 10° NNW 20:44:57 50° NE 20:51:18 16° ESE
Cosmos 1500 4.0 20:42:22 10° N 20:45:49 33° ENE 20:47:10 25° ESE
Cosmos 1782 3.0 20:43:16 19° SSE 20:45:52 53° E 20:49:46 10° NNE
ERS-1 Rocket 3.6 20:50:52 23° SE 20:53:35 42° ENE 20:58:18 10° N
SPOT 5 3.6 20:52:52 23° SE 20:55:34 44° ENE 21:00:31 10° N
Cosmos 1503 Rocket 3.9 20:50:33 10° SSW 20:55:43 90° WNW 21:00:58 10° NNE
Cosmos 1271 Rocket 4.4 21:00:22 19° E 21:00:22 19° E 21:03:10 10° NE
Cosmos 1151 Rocket 2.9 20:58:02 18° S 21:01:18 81° E 21:05:41 10° N
Cosmos 1777 Rocket 4.4 20:58:39 23° SSE 21:01:23 42° ESE 21:06:15 10° NE
USA 290 3.1 20:58:25 10° NW 21:01:33 44° WSW 21:02:58 26° SSW
Cosmos 1602 3.8 21:00:24 10° NNW 21:04:15 72° W 21:06:20 26° S
Terra 2.7 21:02:22 25° ESE 21:04:23 36° ENE 21:08:45 10° N
Cosmos 2278 Rocket 2.8 21:05:44 27° SSE 21:07:53 36° ESE 21:13:00 10° NE
USA 307 4.3 21:04:07 10° NW 21:08:03 35° NNE 21:11:24 13° ENE
CZ-2C R/B 4.1 21:08:18 10° N 21:12:44 63° WNW 21:17:12 10° SSW
Cosmos 1515 Rocket 3.7 21:17:35 37° SSE 21:19:02 56° E 21:23:22 10° NNE
SL-4 R/B 4.0 21:16:18 10° W 21:19:41 21° SW 21:21:08 18° SSW
SPOT 1/Viking Rocket 4.0 21:16:47 21° S 21:20:15 59° W 21:25:24 10° NNW
Cosmos 1844 Rocket 4.2 21:15:06 10° WSW 21:20:16 38° NW 21:25:28 10° NNE
X-37B 0.8 21:17:09 10° W 21:20:09 54° SSW 21:20:09 54° SSW
Cosmos 2084 3.3 21:17:53 21° SSW 21:20:31 61° SE 21:24:43 10° NE
USA 308 4.1 21:17:36 10° NW 21:21:38 38° NNE 21:24:24 18° E
SWARM C 4.4 21:19:03 10° N 21:22:23 84° E 21:22:52 62° SSE
SWARM A 4.1 21:19:09 10° N 21:22:30 88° E 21:23:01 61° S
ARIANE 5 R/B 2.6 21:20:40 32° S 21:22:35 74° WSW 21:26:57 10° NNW
Cosmos 1437 2.5 21:25:46 65° WSW 21:25:56 68° WNW 21:28:47 10° N
JB-3 4.2 21:22:29 10° NNE 21:26:26 87° WNW 21:27:56 36° SSW
Cosmos 1633 Rocket 3.8 21:24:47 10° NNW 21:29:02 48° W 21:31:23 24° SSW
Cosmos 1812 2.6 21:31:31 51° S 21:32:25 83° E 21:36:18 10° N
Cosmos 1470 Rocket 3.8 21:33:52 10° NNW 21:38:20 68° W 21:39:56 38° SSW
Cosmos 2184 Rocket 4.0 21:32:30 10° N 21:38:44 69° E 21:41:19 36° SSE
Cosmos 1328 Rocket 4.3 21:36:50 19° SSW 21:39:52 50° WNW 21:44:11 10° N
Meteor 1-5 Rocket 4.0 21:34:27 10° NNW 21:39:54 88° WSW 21:42:00 39° S
NOSS 3-4 (A) 4.2 21:35:58 10° NW 21:42:46 58° NE 21:47:03 27° ESE
NOSS 3-4 (C) 4.2 21:36:04 10° NW 21:42:52 57° NE 21:47:10 26° ESE
ATLAS 5 CENTAUR R/B 3.1 21:38:58 10° NW 21:44:24 45° WSW 21:47:13 29° S
CARTOSAT-1 4.3 21:44:08 31° SSW 21:45:44 45° W 21:49:55 10° NNW
Cosmos 2074 Rocket 4.0 21:40:23 10° N 21:46:43 81° E 21:49:23 38° SSE
NOSS 3-3 (A) 4.1 21:45:42 10° SW 21:51:27 72° NW 21:58:06 10° NE
NOSS 3-3 (C) 4.1 21:45:48 10° SW 21:51:34 73° NW 21:58:13 10° NE
Cosmos 1666 2.5 21:48:14 10° NNW 21:51:59 79° W 21:52:12 75° SW
Cosmos 1933 Rocket 3.6 21:48:33 10° NNW 21:52:53 72° W 21:53:49 52° SSW
Cosmos 1833 Rocket 2.7 21:48:12 10° NNW 21:53:52 80° WSW 21:55:42 45° SSE
Nadezhda 1 Rocket 4.1 21:51:52 40° SSE 21:53:59 58° E 22:00:08 10° NNE
ATLAS 2AS CENTAUR R/B 3.6 21:49:06 10° NNW 21:56:16 45° NE 22:00:32 22° E
Meteor 2-12 Rocket 4.4 21:50:57 10° N 21:57:03 71° E 21:59:02 44° SSE
Cosmos 1743 4.3 21:53:58 10° NNE 21:56:52 24° ENE 21:56:52 24° ENE
BREEZE-M DEB (TANK) 3.6 21:57:08 10° WNW 21:57:58 22° WNW 21:57:58 22° WNW
USA 215 4.3 21:56:04 10° E 22:02:07 42° NNE 22:08:11 10° NW
Cosmos 1538 Rocket 4.1 21:57:08 10° NNW 22:02:30 74° WSW 22:03:56 49° S
USA 305 3.2 21:59:37 10° NW 22:03:52 60° NNE 22:04:41 49° ENE
Iridium 4 Rocket 4.0 22:01:48 33° SSW 22:04:24 69° W 22:10:18 10° N
Cosmos 1610 Rocket 4.4 22:02:36 10° N 22:08:47 77° E 22:10:38 47° SSE
Cosmos 158 Rocket 3.7 22:09:53 10° NNW 22:14:47 89° ENE 22:15:28 67° SSE
SJ 16-02 1.5 22:15:15 56° SW 22:16:05 72° WNW 22:20:32 10° NNE
Cosmos 1733 Rocket 4.3 22:12:17 10° NNE 22:16:02 29° ENE 22:16:02 29° ENE
Cosmos 2228 Rocket 3.0 22:17:34 72° SW 22:17:58 82° W 22:22:28 10° N
Meteor 1-27 Rocket 3.7 22:18:38 51° S 22:20:11 82° E 22:26:07 10° NNE
Cosmos 1680 Rocket 3.8 22:15:11 10° NNW 22:20:27 57° ENE 22:21:27 49° ESE
Cosmos 2341 Rocket 4.4 22:15:12 10° N 22:21:28 53° ENE 22:23:08 43° ESE
USA 306 2.9 22:18:45 10° NW 22:23:02 77° NNE 22:23:05 76° NE
COSMOS 2406 3.8 22:19:05 10° NW 22:24:29 46° WSW 22:25:47 39° SW
Cosmos 2082 Rocket 2.1 22:21:38 10° NNW 22:27:17 83° WSW 22:28:19 61° SSE
CZ-4C R/B 3.4 22:26:39 10° NW 22:33:47 52° WSW 22:36:28 39° SSW
Cosmos 1271 Rocket 4.0 22:35:28 34° W 22:36:02 36° WNW 22:39:47 10° N
Cosmos 2218 Rocket 4.5 22:34:37 10° N 22:40:41 49° ENE 22:42:06 42° ESE
Terra 3.2 22:41:15 26° WSW 22:42:11 28° W 22:46:17 10° NW
Meteor 1-11 Rocket 4.4 22:37:54 10° NNW 22:43:39 51° W 22:45:14 40° SW
Okean 1 4.4 22:46:34 38° NE 22:46:34 38° NE 22:49:25 10° NNE
USA 307 3.4 22:44:05 10° WNW 22:47:30 55° WNW 22:47:30 55° WNW
Cosmos 1340 Rocket 3.2 22:46:09 10° NNW 22:49:40 61° NW 22:49:40 61° NW
Cosmos 2278 Rocket 3.4 22:47:29 14° WSW 22:51:54 40° NW 22:57:13 10° NNE
Spot 4 3.7 22:53:27 84° SE 22:53:35 87° ENE 22:58:28 10° NNW
Cosmos 923 Rocket 4.2 22:50:24 10° NNW 22:55:33 58° WSW 22:55:53 57° WSW
Cosmos 1544 4.4 22:52:40 10° NNW 22:55:12 37° NW 22:55:12 37° NW
Cosmos 1862 Rocket 4.1 22:57:00 49° NE 22:57:00 49° NE 23:00:29 10° NNE
Cosmos 1898 Rocket 3.3 22:57:39 79° S 22:57:57 84° ESE 23:03:18 10° NNE
Cosmos 1536 4.1 22:56:12 10° NNW 22:59:30 33° W 22:59:30 33° W
USA 308 3.9 22:57:34 10° WNW 23:00:29 40° WNW 23:00:29 40° WNW
Cosmos 2369 Rocket 3.3 23:03:27 29° E 23:03:27 29° E 23:07:37 10° NE
COBE Rocket 4.3 23:07:04 52° E 23:07:23 53° ENE 23:12:21 10° N
Meteor 2-9 Rocket 4.1 23:04:06 10° N 23:09:57 78° ENE 23:10:35 69° SE
SL-8 Rocket 3.9 23:04:04 10° N 23:10:26 88° W 23:11:34 63° S
Cosmos 1943 Rocket 2.1 23:11:55 66° ESE 23:11:56 66° ESE 23:17:30 10° NNE
Cosmos 1975 3.7 23:09:10 10° N 23:12:12 45° NNE 23:12:12 45° NNE
Cosmos 2084 Rocket 4.1 23:09:15 10° NNW 23:13:20 51° NE 23:13:20 51° NE
ALOS 2 2.8 23:16:05 69° N 23:16:05 69° N 23:20:00 10° NNW
DNEPR-1 R/B 4.1 23:19:56 69° ESE 23:19:56 69° ESE 23:24:49 10° NE
Cosmos 1707 Rocket 4.4 23:20:01 42° WNW 23:20:01 42° WNW 23:24:09 10° N
Cosmos 44 3.3 23:15:15 10° NW 23:20:43 87° SW 23:20:48 86° SSW
Meteor 2-4 Rocket 4.0 23:20:31 53° ESE 23:20:49 54° E 23:26:20 10° NNE
Okean 1-7 4.1 23:30:15 36° ENE 23:30:15 36° ENE 23:33:21 10° NNE
Cosmos 372 Rocket 4.1 23:30:36 63° E 23:30:36 63° E 23:35:16 10° NNE
Meteor 1-18 Rocket 4.1 23:33:04 72° SW 23:33:36 80° WNW 23:39:15 10° N
NOSS 3-4 (A) 4.5 23:27:05 10° NW 23:33:37 40° WSW 23:34:29 39° SW
NOSS 3-4 (C) 4.4 23:27:11 10° NW 23:33:44 40° WSW 23:34:35 39° SW
Cosmos 1238 Rocket 4.1 23:29:49 10° NNW 23:35:58 53° W 23:36:39 50° WSW
SL-24 R/B - RUBIN 2 4.2 23:32:42 10° NW 23:37:29 57° W 23:37:29 57° W
SeaSat 1 3.0 23:34:11 10° NE 23:38:19 48° E 23:38:19 48° E
Cosmos 864 Rocket 4.4 23:33:02 10° NNW 23:39:09 69° W 23:39:57 61° SW
Cosmos 2242 Rocket 4.1 23:40:22 53° NE 23:40:22 53° NE 23:44:00 10° NNE
USA 215 3.2 23:42:20 43° ESE 23:44:45 88° NE 23:51:20 10° NW
Cosmos 2297 4.2 23:45:51 43° WSW 23:47:14 54° WNW 23:52:50 10° NNE
ATLAS 2AS CENTAUR R/B 2.9 23:40:21 10° NW 23:47:21 51° WSW 23:47:56 50° SW
Cosmos 2181 Rocket 4.5 23:52:11 42° WSW 23:53:33 49° WNW 23:59:30 10° N
SJ 16-02 4.3 23:54:54 10° WNW 23:55:31 10° NW 23:56:07 10° NW
